Probability
0 0 0 0 0 0 0 0 1 1 1 0 0 0 0 0 1 2 1 1 4 8 10 11 14 19 22 26 30 33 41 48 54 64 71 72 68 60 55 53 50 50 51
0 0 0 0 0 0 0 1 2 2 1 0 0 1 2 3 5 6 6 5 5 5 6 7 10 14 17 20 24 28 34 41 49 59 69 75 76 73 70 67 64 60 58
2 2 1 0 0 1 1 1 2 2 3 3 4 6 8 8 10 12 11 10 8 5 3 3 5 8 11 13 16 19 23 29 37 45 56 69 78 82 83 84 81 75 71
3 3 3 2 2 2 2 3 2 3 4 5 8 10 10 10 11 11 12 11 10 8 4 1 1 4 7 9 10 12 14 17 22 29 39 53 68 80 87 88 89 86 83
2 3 4 4 3 3 3 4 4 4 5 5 6 6 6 5 5 6 6 6 6 6 4 1 0 1 3 5 6 7 8 8 11 17 26 39 56 73 84 87 89 90 89
2 2 3 3 3 2 3 4 4 4 4 3 2 1 1 1 1 1 2 2 2 2 1 0 0 0 1 2 3 4 4 4 5 8 15 28 45 61 74 81 85 88 89
1 1 1 1 1 1 1 1 2 2 2 1 0 0 0 0 0 0 0 0 0 0 0 0 0 0 0 1 1 1 1 1 1 3 8 18 33 46 56 66 75 82 86
0 0 0 0 0 0 0 0 0 0 0 0 0 0 0 0 0 0 0 0 0 0 0 0 0 0 0 0 0 0 0 0 0 1 3 9 18 28 36 44 56 69 77
0 0 0 0 0 0 0 0 0 0 0 0 0 0 0 0 0 0 0 0 0 0 0 0 0 0 0 0 0 0 0 0 0 0 1 3 7 13 18 24 33 47 58
0 0 0 0 0 0 0 0 0 0 0 0 0 0 0 0 0 0 0 0 0 0 0 0 0 0 0 0 0 0 0 0 0 0 0 0 1 4 7 10 16 25 33
0 0 0 0 0 0 0 0 0 0 0 0 0 0 0 0 0 0 0 0 0 0 0 0 0 0 0 0 0 0 0 0 0 0 0 0 0 1 2 4 7 12 16
0 0 0 0 0 0 0 0 0 0 0 0 0 0 0 0 0 0 0 0 0 0 0 0 0 0 0 0 0 0 0 0 0 0 0 0 0 0 1 1 3 5 7
0 0 0 0 0 0 0 0 0 0 0 0 0 0 0 0 0 0 0 0 0 0 0 0 0 0 0 0 0 0 0 0 0 0 0 0 0 0 0 0 1 1 2
0 0 0 0 0 0 0 0 0 0 0 0 0 0 0 0 0 0 0 0 0 0 0 0 0 0 0 0 0 0 0 0 0 0 0 0 0 0 0 0 0 0 0
0 0 0 0 0 0 0 0 0 0 0 0 0 0 0 0 0 0 0 0 0 0 0 0 0 0 0 0 0 0 0 0 0 0 0 0 0 0 0 0 0 0 0
0 0 0 0 0 0 0 0 0 0 0 0 0 0 0 0 0 0 0 0 0 0 0 0 0 0 0 0 0 0 0 0 0 0 0 0 0 0 0 0 0 0 0
0 0 0 0 0 0 0 0 0 0 0 0 0 0 0 0 0 0 0 0 0 0 0 0 0 0 0 0 0 0 0 0 0 0 0 0 0 0 0 0 0 0 0
0 0 0 0 0 0 0 0 0 0 0 0 0 0 0 0 0 0 0 0 0 0 0 0 0 0 0 0 0 0 0 0 0 0 0 0 0 0 0 0 0 0 0
0 0 0 0 0 0 0 0 0 0 0 0 0 0 0 0 0 0 0 0 0 0 0 0 0 0 0 0 0 0 0 0 0 0 0 0 0 0 0 0 0 0 0
0 0 0 0 0 0 0 0 0 0 0 0 0 0 0 0 0 0 0 0 0 0 0 0 0 0 0 0 0 0 0 0 0 0 0 0 0 0 0 0 0 0 0
0 0 0 0 0 0 0 0 0 0 0 0 0 0 0 0 0 0 0 0 0 0 0 0 0 0 0 0 0 0 0 0 0 0 0 0 0 0 0 0 0 0 0
0 0 0 0 0 0 0 0 0 0 0 0 0 0 0 0 0 0 0 0 0 0 0 0 0 0 0 0 0 0 0 0 0 0 0 0 0 0 0 0 0 0 0
0 0 0 0 0 0 0 0 0 0 0 0 0 0 0 0 0 0 0 0 0 0 0 0 0 0 0 0 0 0 0 0 0 0 0 0 0 0 0 0 0 0 0
0 0 0 0 0 0 0 0 0 0 0 0 0 0 0 0 0 0 0 0 0 0 0 0 0 0 0 0 0 0 0 0 0 0 0 0 0 0 0 0 0 0 0
0 0 0 0 0 0 0 0 0 0 0 0 0 0 0 0 0 0 0 0 0 0 0 0 0 0 0 0 0 0 0 0 0 0 0 0 0 0 0 0 0 0 0
0 0 0 0 0 0 0 0 0 0 0 0 0 0 0 0 0 0 0 0 0 0 0 0 0 0 0 0 0 0 0 0 0 0 0 0 0 0 0 0 0 0 0
Wind_Speed
2 1 1 1 2 1 2 2 2 2 4 4 4 5 5 4 5 5 1 7 4 3 3 2 3 3 4 5 6 7 8 9 10 10 10 10 11 11 11 10 10 10 10
1 2 2 1 2 2 3 3 2 3 4 4 5 5 6 6 4 5 6 3 5 3 1 2 3 4 5 6 7 8 9 9 10 10 10 11 11 12 12 13 13 12 11
1 1 1 1 1 1 1 2 2 3 4 4 6 5 6 6 6 6 7 6 4 6 4 2 4 6 7 9 10 11 11 12 12 12 12 12 12 13 14 14 14 14 14
2 1 1 2 2 1 2 2 3 4 4 5 6 6 6 5 8 7 8 8 7 6 5 6 6 9 10 11 12 13 14 14 14 15 15 14 14 14 15 15 16 16 16
5 3 3 4 2 2 3 3 3 5 5 5 7 6 7 7 7 9 9 9 9 7 8 5 9 11 13 13 14 15 16 17 17 17 18 18 16 15 15 16 17 17 18
6 4 5 5 4 3 3 4 4 3 4 5 8 8 8 8 8 8 8 8 7 9 10 10 9 9 12 13 14 16 17 18 19 20 20 20 19 17 16 17 18 19 20
7 6 4 4 4 4 4 4 4 4 4 4 7 8 9 10 8 6 6 7 8 9 9 10 10 9 7 11 15 16 17 19 20 21 21 21 20 18 17 17 17 19 20
6 4 4 2 3 1 1 2 3 5 5 4 6 9 10 9 7 4 4 7 9 9 10 12 11 10 11 10 8 13 16 18 20 21 21 21 21 19 18 19 19 19 20
5 4 3 2 2 3 2 3 4 4 6 6 4 7 8 8 9 6 6 7 8 9 11 11 12 12 12 11 11 13 15 15 18 21 22 22 21 20 20 20 20 20 21
3 3 2 2 3 3 3 4 4 5 5 6 4 3 5 8 8 8 8 8 10 11 12 11 12 12 13 12 11 14 16 17 18 20 21 22 22 21 21 20 20 21 22
2 2 2 2 3 3 3 4 3 5 4 5 6 5 6 6 9 10 11 10 11 11 11 12 11 12 12 12 11 14 13 13 15 18 19 20 21 21 21 20 20 20 20
0 1 2 3 3 3 3 3 3 3 3 4 5 6 7 7 8 10 12 12 12 11 12 12 12 12 10 11 13 13 11 14 16 17 17 18 19 20 20 20 20 20 20
1 1 3 3 3 3 3 4 4 4 4 4 5 6 7 8 8 10 12 13 14 12 14 13 11 9 10 10 10 8 12 15 16 16 16 17 18 18 19 20 20 19 19
3 3 3 4 4 4 4 4 5 4 4 6 7 7 8 9 8 10 11 12 14 13 13 14 11 11 10 9 7 6 12 14 15 16 16 17 18 18 19 19 19 18 18
3 3 4 5 5 5 5 6 6 6 6 8 9 9 9 9 9 10 10 11 12 14 14 14 12 12 10 10 9 11 12 13 13 15 17 17 18 18 18 18 17 17 17
4 5 6 6 6 6 6 7 8 6 8 9 8 10 10 10 10 11 11 11 11 12 13 11 13 14 14 13 13 14 14 14 17 18 19 18 18 18 18 18 18 18 18
5 6 6 7 7 7 7 7 9 9 10 11 11 12 13 13 12 11 12 12 12 11 14 13 13 14 16 16 14 13 13 13 11 14 16 16 16 16 16 16 17 16 16
6 7 7 8 8 8 8 9 11 11 12 13 13 14 14 12 14 13 12 13 12 12 13 15 13 13 16 16 15 15 13 12 11 9 10 13 14 14 14 14 14 13 12
7 8 8 9 9 10 10 10 11 12 13 13 14 14 15 15 15 13 13 13 11 11 11 12 13 12 13 13 14 13 14 10 11 9 9 11 13 13 13 12 12 12 11
8 9 9 10 10 11 11 11 11 13 13 13 14 14 15 15 15 14 12 13 12 12 12 12 12 12 12 13 11 10 10 8 7 7 7 7 8 11 13 14 14 15 14
9 9 9 10 10 9 7 10 12 14 14 14 14 15 15 16 17 15 12 12 12 11 11 11 12 12 12 11 10 8 8 7 7 5 6 6 6 7 8 12 15 15 15
8 8 8 9 9 6 8 10 12 14 14 15 14 14 14 15 15 16 18 19 18 15 14 13 12 13 15 13 10 8 7 7 5 2 4 5 4 5 5 5 6 11 15
7 6 7 7 8 4 4 8 12 15 15 13 13 13 12 12 15 14 15 17 18 20 20 16 15 15 14 12 10 9 7 6 4 1 2 4 4 4 4 5 11 15 17
5 6 6 8 9 6 3 8 15 15 13 13 13 14 14 15 14 14 14 15 15 14 13 10 10 11 11 9 7 6 4 2 2 2 2 4 3 3 4 5 10 15 18
6 6 6 8 9 8 4 9 14 13 11 13 13 14 15 15 14 13 15 15 14 11 7 6 7 8 7 7 5 3 2 3 2 2 1 3 3 3 4 4 8 15 17
6 7 8 8 9 10 8 9 13 10 11 11 12 13 15 14 15 16 14 11 10 7 4 3 3 3 4 4 3 2 2 2 1 0 1 2 2 3 3 3 6 10 10
Wind_Direction
208 188 200 281 283 287 223 247 278 282 272 253 264 275 282 287 285 291 145 103 71 41 17 347 324 312 303 299 296 290 282 274 267 261 255 249 244 240 234 230 225 221 219
224 235 220 249 293 305 327 305 302 279 276 292 278 277 279 282 275 281 288 165 145 127 44 341 317 304 297 293 291 290 288 283 279 275 266 256 248 243 238 231 225 221 217
128 255 285 255 353 355 301 282 292 277 275 274 271 272 268 272 281 273 277 278 242 180 180 253 290 292 287 282 280 278 277 277 276 275 272 266 256 246 240 234 227 221 217
66 51 60 52 23 331 313 314 300 295 293 290 290 284 280 268 264 269 268 264 271 274 231 215 258 277 279 278 276 275 274 273 272 271 269 266 260 252 243 236 230 223 218
71 69 58 52 8 6 353 333 352 322 311 310 299 285 279 281 284 274 271 272 271 270 276 245 246 260 267 272 275 275 275 274 272 270 268 264 260 255 249 241 233 226 221
65 64 74 48 19 23 16 11 353 342 320 315 301 295 283 278 276 274 270 265 267 270 274 284 279 263 254 264 272 274 274 274 273 270 268 265 261 256 252 247 239 230 224
68 54 63 62 32 40 22 357 335 305 288 310 295 287 273 256 250 262 269 282 280 282 282 280 278 286 282 264 260 264 269 273 274 274 272 269 266 260 255 251 245 237 229
69 70 53 50 39 24 18 334 323 306 301 296 302 299 290 277 238 242 269 274 289 297 291 287 287 285 280 282 278 274 274 274 276 277 276 274 272 269 263 257 252 246 238
81 67 58 25 354 299 334 324 312 312 311 305 309 308 308 312 329 290 288 288 290 288 291 291 285 281 278 279 281 271 269 277 278 278 276 275 274 272 269 264 259 254 246
69 56 38 14 330 325 334 304 358 318 307 308 315 300 303 316 301 302 294 291 292 287 284 285 287 283 277 272 270 271 268 267 273 277 277 275 273 272 271 267 265 262 256
73 32 3 341 330 320 349 336 324 314 312 318 319 314 304 288 277 281 292 294 287 285 287 287 285 282 280 274 271 266 264 267 272 277 277 277 275 273 270 268 266 266 264
94 38 327 326 305 325 324 311 306 288 316 322 309 307 302 300 300 297 294 292 289 289 292 292 284 277 273 272 268 275 275 272 272 275 278 279 278 276 272 270 269 267 266
315 47 322 310 312 316 305 300 283 299 291 295 292 301 304 297 296 294 293 294 295 294 290 282 278 279 279 277 274 273 263 263 266 270 274 277 278 277 274 272 271 270 270
349 355 298 292 293 291 288 287 281 272 275 283 287 292 291 292 299 294 294 296 293 291 287 287 292 288 282 280 289 282 272 263 259 263 268 271 273 274 273 271 269 268 269
308 295 288 285 287 287 289 284 286 285 283 279 287 289 291 300 293 294 292 288 289 290 288 294 291 291 292 286 282 277 276 271 263 261 263 265 267 268 270 270 268 266 265
304 294 289 289 288 285 280 281 284 281 282 282 285 290 292 293 302 297 292 289 281 278 281 283 286 287 292 288 282 282 280 277 261 255 256 258 260 262 264 263 264 262 260
295 288 292 292 291 289 286 283 286 291 285 288 291 292 294 297 296 297 295 289 283 277 277 280 281 283 283 283 283 281 279 277 270 252 249 252 254 257 258 260 263 261 257
288 291 292 291 290 289 288 285 286 291 291 293 295 297 298 299 297 295 292 289 286 282 278 281 280 281 281 282 281 280 279 279 278 271 254 252 253 254 256 258 260 261 260
289 290 290 291 292 293 290 288 290 293 295 297 298 299 299 296 293 293 293 289 285 282 278 279 282 283 281 279 281 280 279 278 278 269 246 242 247 252 254 255 257 257 257
289 290 294 296 297 298 298 303 306 304 302 301 300 297 294 292 293 294 291 286 283 283 280 280 280 281 281 282 281 281 284 282 280 277 266 257 247 244 247 252 254 254 253
290 294 297 299 303 304 340 339 319 309 307 303 300 297 294 295 293 289 286 287 286 282 280 279 281 283 282 283 283 286 286 290 281 266 262 250 241 243 238 241 246 254 258
304 311 314 319 321 345 29 350 322 311 306 302 301 301 300 294 291 290 283 281 281 281 283 282 282 280 282 283 285 282 281 276 269 240 270 270 257 259 265 269 283 281 271
338 341 340 336 330 6 30 333 323 310 303 304 304 301 297 295 294 289 289 287 284 279 276 277 279 279 281 282 282 277 267 266 261 180 257 268 258 266 281 289 295 291 284
358 350 342 338 329 346 31 328 324 305 304 304 300 297 294 293 294 296 298 293 287 284 281 281 282 287 288 286 281 277 277 253 216 205 240 276 286 280 289 290 299 302 296
357 341 347 341 334 337 11 330 320 314 308 308 305 302 300 299 300 295 294 290 288 288 280 279 290 298 308 311 294 261 237 233 229 197 206 279 290 290 287 301 317 319 312
356 344 354 344 338 335 340 314 313 315 312 312 308 305 300 298 301 298 294 287 284 290 306 320 330 343 356 10 6 350 323 296 299 166 30 301 295 299 298 309 330 336 330